Weather History for Worcester, MA

Change the Weather History Date:

Sunday, January 20, 2013

  Actual Average Record
Temperature  
Mean Temperature 36 °F 24 °F  
Max Temperature 47 °F 31 °F 56 °F (1951)
Min Temperature 24 °F 16 °F -8 °F (1971)
Degree Days  
Heating Degree Days 29 41  
Month to date heating degree days 687 816  
Since 1 July heating degree days 2902 3320  
Cooling Degree Days 0 0  
Month to date cooling degree days 0 0  
Year to date cooling degree days 0 0  
Moisture  
Dew Point 21 °F    
Average Humidity 55    
Maximum Humidity 75    
Minimum Humidity 35    
Precipitation  
Precipitation 0.00 in 0.11 in 1.47 in (1978)
Month to date precipitation 0.58 2.23  
Year to date precipitation 0.58 2.23  
Sea Level Pressure  
Sea Level Pressure 29.73 in    
Wind  
Wind Speed 21 mph (WSW)    
Max Wind Speed 37 mph    
Max Gust Speed 44 mph    
Visibility 10 miles    
Events      
T = Trace of Precipitation, MM = Missing Value Source: NWS Daily Summary

Daily Weather History Graph

Daily Weather History Graph

Search for Another Location

Airport:

Trip Planner

Search our weather history database for the weather conditions in past years. The results will help you decide how hot, cold, wet, or windy it might be!

Date:

Astronomy

Jan. 20, 2013 Rise Set
Actual Time 7:10 AM EST 4:46 PM EST
Civil Twilight 6:40 AM EST 5:17 PM EST
Nautical Twilight 6:05 AM EST 5:51 PM EST
Astronomical Twilight 5:32 AM EST 6:25 PM EST
Moon 11:46 AM EST (1/20) 1:39 AM EST (1/20)
Length of Visible Light 10h 37m
Length of Day
9h 35m
Waxing Gibbous, 66% of the Moon is Illuminated
Jan 20
Waxing Gibbous
Jan 26
Full
Feb 3
Last Quarter
Feb 10
New
Feb 17
First Quarter

Hourly Weather History & Observations

Time (EST) Temp. Windchill Dew Point Humidity Pressure Visibility Wind Dir Wind Speed Gust Speed Precip Events Conditions
12:54 AM 37.0 °F 28.9 °F 28.0 °F 70% 29.84 in 10.0 mi SW 12.7 mph - N/A   Clear
1:54 AM 37.0 °F 28.1 °F 28.0 °F 70% 29.81 in 10.0 mi SW 15.0 mph - N/A   Clear
2:54 AM 37.4 °F 27.5 °F 28.4 °F 70% 29.77 in 10.0 mi SW 18.4 mph 23.0 mph N/A   Clear
3:54 AM 37.0 °F 28.1 °F 28.0 °F 70% 29.76 in 10.0 mi SW 15.0 mph - N/A   Mostly Cloudy
4:54 AM 36.0 °F 25.6 °F 27.0 °F 70% 29.73 in 10.0 mi SW 18.4 mph - N/A   Clear
5:54 AM 36.0 °F 25.0 °F 28.0 °F 73% 29.68 in 10.0 mi SSW 20.7 mph 28.8 mph N/A   Clear
6:54 AM 35.1 °F 24.5 °F 27.0 °F 72% 29.67 in 10.0 mi SW 18.4 mph - N/A   Clear
7:54 AM 36.0 °F 24.4 °F 28.0 °F 73% 29.65 in 10.0 mi SW 23.0 mph 29.9 mph N/A   Clear
8:54 AM 39.0 °F 29.3 °F 27.0 °F 62% 29.65 in 10.0 mi SW 19.6 mph 34.5 mph N/A   Clear
9:54 AM 43.0 °F 34.0 °F 26.1 °F 51% 29.64 in 10.0 mi WSW 21.9 mph 43.7 mph N/A   Clear
10:54 AM 46.0 °F 36.4 °F 26.1 °F 46% 29.60 in 10.0 mi SW 32.2 mph 43.7 mph N/A   Clear
11:54 AM 46.9 °F - 26.1 °F 44% 29.56 in 10.0 mi WSW 33.4 mph 43.7 mph N/A   Clear
12:54 PM 46.0 °F 36.7 °F 26.1 °F 46% 29.57 in 10.0 mi WSW 29.9 mph 40.3 mph N/A   Overcast
1:54 PM 42.1 °F 33.6 °F 27.0 °F 55% 29.61 in 10.0 mi West 18.4 mph 32.2 mph N/A   Partly Cloudy
2:54 PM 42.1 °F 33.3 °F 25.0 °F 51% 29.63 in 10.0 mi West 19.6 mph 28.8 mph N/A   Scattered Clouds
3:54 PM 42.1 °F 33.6 °F 18.0 °F 38% 29.67 in 10.0 mi West 18.4 mph 25.3 mph N/A   Clear
4:54 PM 37.0 °F 26.4 °F 12.9 °F 37% 29.72 in 10.0 mi WNW 20.7 mph 33.4 mph N/A   Clear
5:54 PM 33.1 °F 21.9 °F 15.1 °F 48% 29.77 in 10.0 mi WNW 18.4 mph 31.1 mph N/A   Clear
6:54 PM 30.0 °F 17.5 °F 14.0 °F 51% 29.81 in 10.0 mi WNW 19.6 mph 26.5 mph N/A   Clear
7:54 PM 28.0 °F 12.3 °F 10.0 °F 47% 29.83 in 10.0 mi WNW 29.9 mph 40.3 mph N/A   Clear
8:54 PM 26.1 °F 11.0 °F 8.1 °F 47% 29.86 in 10.0 mi West 24.2 mph 35.7 mph N/A   Clear
9:54 PM 26.1 °F 11.6 °F 6.1 °F 43% 29.88 in 10.0 mi West 21.9 mph 35.7 mph N/A   Clear
10:54 PM 25.0 °F 9.9 °F 7.0 °F 46% 29.90 in 10.0 mi WNW 23.0 mph 31.1 mph N/A   Clear
11:54 PM 24.1 °F 11.0 °F 7.0 °F 48% 29.90 in 10.0 mi West 16.1 mph 24.2 mph N/A   Clear